| time (UTC) | temp F | wind direction | speed knots | gust knots | rain 1hr in | rain 24hr in | rain mn in | humidity % | barometer mb |
| 20260504081717 | 46 | 285 | 0.0 | 0.0 | 0.00 | 0.00 | 0.00 | 81 | 1015.5 |
| 20260504081218 | 46 | 285 | 0.0 | 0.0 | 0.00 | 0.00 | 0.00 | 81 | 1015.6 |
| 20260504080716 | 45 | 285 | 0.0 | 0.0 | 0.00 | 0.00 | 0.00 | 78 | 1015.5 |
| 20260504080216 | 46 | 285 | 0.0 | 0.0 | 0.00 | 0.00 | 0.00 | 78 | 1015.6 |
| 20260504070216 | 44 | 285 | 0.0 | 0.0 | 0.00 | 0.00 | 0.00 | 76 | 1015.7 |
| 20260504060219 | 41 | 285 | 0.0 | 0.0 | 0.00 | 0.00 | 0.00 | 84 | 1015.8 |
| 20260504050716 | 41 | 285 | 0.0 | 0.0 | 0.00 | 0.00 | 0.00 | 84 | 1016.0 |
| 20260504050216 | 41 | 285 | 0.0 | 0.0 | 0.00 | 0.00 | 0.00 | 82 | 1015.9 |
| 20260504045716 | 41 | 285 | 0.0 | 0.0 | 0.00 | 0.00 | 0.00 | 82 | 1015.9 |
| 20260504045216 | 41 | 285 | 0.0 | 0.0 | 0.00 | 0.00 | 0.00 | 83 | 1015.8 |
| 20260504044717 | 41 | 285 | 0.0 | 0.0 | 0.00 | 0.00 | 0.00 | 82 | 1015.8 |
| 20260504044217 | 42 | 285 | 0.0 | 0.0 | 0.00 | 0.00 | 0.00 | 82 | 1015.8 |
| 20260504043716 | 42 | 285 | 0.0 | 0.0 | 0.00 | 0.00 | 0.00 | 82 | 1015.9 |
| 20260504043222 | 42 | 285 | 0.0 | 0.0 | 0.00 | 0.00 | 0.00 | 82 | 1015.9 |
| 20260504042717 | 42 | 285 | 0.0 | 0.0 | 0.00 | 0.00 | 0.00 | 82 | 1015.9 |
| 20260504042216 | 42 | 285 | 0.0 | 0.0 | 0.00 | 0.00 | 0.00 | 82 | 1015.8 |
| 20260504041716 | 42 | 285 | 0.0 | 0.0 | 0.00 | 0.00 | 0.00 | 81 | 1015.8 |
| 20260504041216 | 42 | 285 | 0.0 | 0.0 | 0.00 | 0.00 | 0.00 | 81 | 1015.8 |
| 20260504040718 | 42 | 285 | 0.0 | 0.0 | 0.00 | 0.00 | 0.00 | 81 | 1015.7 |
| 20260504040216 | 42 | 285 | 0.0 | 0.0 | 0.00 | 0.00 | 0.00 | 80 | 1015.7 |
| 20260504035716 | 42 | 285 | 0.0 | 0.0 | 0.00 | 0.00 | 0.00 | 79 | 1015.8 |
| 20260504035216 | 42 | 285 | 0.0 | 0.0 | 0.00 | 0.00 | 0.00 | 78 | 1015.6 |
| 20260504034717 | 43 | 285 | 0.0 | 0.0 | 0.00 | 0.00 | 0.00 | 78 | 1015.6 |
| 20260504034218 | 43 | 285 | 0.0 | 0.0 | 0.00 | 0.00 | 0.00 | 78 | 1015.6 |
| 20260504033716 | 43 | 285 | 0.0 | 0.0 | 0.00 | 0.00 | 0.00 | 78 | 1015.6 |
| 20260504033216 | 43 | 285 | 0.0 | 0.0 | 0.00 | 0.00 | 0.00 | 79 | 1015.5 |
| 20260504032718 | 43 | 285 | 0.0 | 0.0 | 0.00 | 0.00 | 0.00 | 78 | 1015.4 |
| 20260504032219 | 43 | 285 | 0.0 | 0.0 | 0.00 | 0.00 | 0.00 | 78 | 1015.4 |
| 20260504031720 | 43 | 285 | 0.0 | 0.0 | 0.00 | 0.00 | 0.00 | 76 | 1015.3 |
| 20260504031220 | 43 | 285 | 0.0 | 0.0 | 0.00 | 0.00 | 0.00 | 75 | 1015.2 |
| 20260504030720 | 44 | 285 | 0.0 | 0.0 | 0.00 | 0.00 | 0.00 | 75 | 1015.1 |
| 20260504030219 | 44 | 285 | 0.0 | 0.0 | 0.00 | 0.00 | 0.00 | 76 | 1015.2 |
| 20260504025720 | 44 | 285 | 0.0 | 0.0 | 0.00 | 0.00 | 0.00 | 77 | 1015.2 |
| 20260504025222 | 44 | 285 | 0.0 | 0.0 | 0.00 | 0.00 | 0.00 | 75 | 1015.2 |
| 20260504024721 | 44 | 285 | 0.0 | 0.0 | 0.00 | 0.00 | 0.00 | 74 | 1015.1 |
| 20260504024219 | 45 | 285 | 0.0 | 0.0 | 0.00 | 0.00 | 0.00 | 70 | 1015.2 |
| 20260504023720 | 45 | 285 | 0.0 | 0.0 | 0.00 | 0.00 | 0.00 | 71 | 1015.1 |
| 20260504023219 | 45 | 285 | 0.0 | 0.0 | 0.00 | 0.00 | 0.00 | 74 | 1015.2 |
| 20260504022717 | 45 | 285 | 0.0 | 0.0 | 0.00 | 0.00 | 0.00 | 74 | 1015.1 |
| 20260504022216 | 45 | 285 | 0.0 | 0.0 | 0.00 | 0.00 | 0.00 | 72 | 1015.2 |
| 20260504021717 | 45 | 285 | 0.0 | 0.0 | 0.00 | 0.00 | 0.00 | 71 | 1015.1 |
| 20260504021216 | 45 | 285 | 0.0 | 0.0 | 0.00 | 0.00 | 0.00 | 67 | 1015.1 |
| 20260504020717 | 46 | 285 | 0.0 | 0.0 | 0.00 | 0.00 | 0.00 | 69 | 1015.1 |
| 20260504020216 | 46 | 285 | 0.0 | 0.0 | 0.00 | 0.00 | 0.00 | 73 | 1014.9 |
| 20260504015717 | 46 | 285 | 0.0 | 0.0 | 0.00 | 0.00 | 0.00 | 73 | 1014.9 |
| 20260504015217 | 46 | 285 | 0.0 | 0.0 | 0.00 | 0.00 | 0.00 | 71 | 1015.0 |
| 20260504014717 | 47 | 285 | 0.0 | 0.0 | 0.00 | 0.00 | 0.00 | 71 | 1015.0 |
| 20260504014216 | 47 | 285 | 0.0 | 0.0 | 0.00 | 0.00 | 0.00 | 72 | 1014.9 |
| 20260504013717 | 47 | 285 | 0.0 | 0.0 | 0.00 | 0.00 | 0.00 | 71 | 1015.0 |
| 20260504013217 | 47 | 285 | 0.0 | 0.0 | 0.00 | 0.00 | 0.00 | 70 | 1015.0 |
| 20260504012717 | 47 | 285 | 0.0 | 0.0 | 0.00 | 0.00 | 0.00 | 70 | 1015.0 |
| 20260504012217 | 47 | 285 | 0.0 | 0.0 | 0.00 | 0.00 | 0.00 | 68 | 1014.9 |
| 20260504011718 | 47 | 285 | 0.0 | 0.0 | 0.00 | 0.00 | 0.00 | 65 | 1014.8 |
| 20260504011217 | 48 | 285 | 0.0 | 0.0 | 0.00 | 0.00 | 0.00 | 70 | 1014.7 |
| 20260504010717 | 48 | 285 | 0.0 | 0.0 | 0.00 | 0.00 | 0.00 | 66 | 1014.7 |
| 20260504010216 | 48 | 285 | 0.0 | 0.0 | 0.00 | 0.00 | 0.00 | 68 | 1014.7 |
| 20260504005717 | 49 | 285 | 0.0 | 0.0 | 0.00 | 0.00 | 0.00 | 68 | 1014.7 |
| 20260504005217 | 49 | 285 | 0.0 | 0.0 | 0.00 | 0.00 | 0.00 | 66 | 1014.7 |
| 20260504004718 | 49 | 285 | 0.0 | 0.0 | 0.00 | 0.00 | 0.00 | 64 | 1014.6 |
| 20260504004217 | 50 | 285 | 0.0 | 0.0 | 0.00 | 0.00 | 0.00 | 64 | 1014.5 |
| 20260504003716 | 50 | 285 | 0.0 | 0.0 | 0.00 | 0.00 | 0.00 | 62 | 1014.5 |
| 20260504003217 | 51 | 285 | 0.0 | 0.0 | 0.00 | 0.00 | 0.00 | 64 | 1014.4 |
| 20260504002719 | 52 | 285 | 0.0 | 0.0 | 0.00 | 0.00 | 0.00 | 63 | 1014.4 |
| 20260504002216 | 52 | 285 | 0.0 | 0.0 | 0.00 | 0.00 | 0.00 | 61 | 1014.4 |
| 20260504001717 | 53 | 285 | 0.0 | 0.0 | 0.00 | 0.00 | 0.00 | 59 | 1014.4 |
| 20260504001218 | 54 | 285 | 0.0 | 0.0 | 0.00 | 0.00 | 0.00 | 57 | 1014.3 |
| 20260504000717 | 55 | 285 | 0.0 | 0.0 | 0.00 | 0.00 | 0.00 | 52 | 1014.3 |
| 20260504000219 | 56 | 285 | 0.0 | 0.0 | 0.00 | 0.00 | 0.00 | 50 | 1014.3 |
| 20260503235718 | 56 | 285 | 0.0 | 0.0 | 0.00 | 0.00 | 0.00 | 42 | 1014.2 |
| 20260503235217 | 57 | 285 | 0.0 | 0.0 | 0.00 | 0.00 | 0.00 | 40 | 1014.1 |
| 20260503234717 | 57 | 285 | 0.0 | 0.0 | 0.00 | 0.00 | 0.00 | 38 | 1014.1 |
| 20260503234216 | 57 | 285 | 0.0 | 0.0 | 0.00 | 0.00 | 0.00 | 42 | 1014.1 |
| 20260503233717 | 58 | 285 | 0.0 | 0.0 | 0.00 | 0.00 | 0.00 | 43 | 1014.1 |
| 20260503233217 | 58 | 285 | 0.0 | 1.7 | 0.00 | 0.00 | 0.00 | 37 | 1014.0 |
| 20260503232718 | 58 | 285 | 0.0 | 1.7 | 0.00 | 0.00 | 0.00 | 38 | 1013.9 |
| 20260503232223 | 58 | 285 | 0.0 | 1.7 | 0.00 | 0.00 | 0.00 | 38 | 1013.9 |
| 20260503231722 | 58 | 285 | 0.0 | 0.0 | 0.00 | 0.00 | 0.00 | 39 | 1013.8 |
| 20260503231223 | 58 | 285 | 0.0 | 0.9 | 0.00 | 0.00 | 0.00 | 37 | 1013.8 |
| 20260503230722 | 58 | 285 | 0.0 | 2.6 | 0.00 | 0.00 | 0.00 | 38 | 1013.8 |
| 20260503230222 | 59 | 315 | 0.0 | 2.6 | 0.00 | 0.00 | 0.00 | 36 | 1013.8 |
| 20260503225723 | 59 | 315 | 0.0 | 0.9 | 0.00 | 0.00 | 0.00 | 39 | 1013.8 |
| 20260503225222 | 59 | 315 | 0.0 | 0.0 | 0.00 | 0.00 | 0.00 | 40 | 1013.9 |
| 20260503224722 | 59 | 315 | 0.0 | 0.0 | 0.00 | 0.00 | 0.00 | 35 | 1013.9 |
| 20260503224222 | 59 | 315 | 0.0 | 0.0 | 0.00 | 0.00 | 0.00 | 37 | 1013.9 |
| 20260503223723 | 59 | 315 | 0.0 | 2.6 | 0.00 | 0.00 | 0.00 | 36 | 1013.9 |
| 20260503223223 | 59 | 315 | 0.0 | 4.3 | 0.00 | 0.00 | 0.00 | 35 | 1014.0 |
| 20260503222720 | 60 | 314 | 0.0 | 4.3 | 0.00 | 0.00 | 0.00 | 34 | 1014.0 |
| 20260503222221 | 60 | 310 | 0.0 | 4.3 | 0.00 | 0.00 | 0.00 | 38 | 1013.9 |
| 20260503221720 | 60 | 305 | 0.0 | 2.6 | 0.00 | 0.00 | 0.00 | 35 | 1013.9 |
| 20260503221220 | 60 | 305 | 0.0 | 2.6 | 0.00 | 0.00 | 0.00 | 34 | 1013.9 |
| 20260503220719 | 60 | 306 | 0.9 | 4.3 | 0.00 | 0.00 | 0.00 | 33 | 1013.9 |
| 20260503220219 | 60 | 308 | 0.9 | 4.3 | 0.00 | 0.00 | 0.00 | 35 | 1013.9 |
| 20260503215722 | 60 | 293 | 0.0 | 4.3 | 0.00 | 0.00 | 0.00 | 34 | 1014.0 |
| 20260503215220 | 60 | 316 | 0.9 | 4.3 | 0.00 | 0.00 | 0.00 | 35 | 1014.0 |
| 20260503214720 | 60 | 289 | 0.9 | 2.6 | 0.00 | 0.00 | 0.00 | 36 | 1013.9 |
| 20260503214219 | 60 | 311 | 0.9 | 2.6 | 0.00 | 0.00 | 0.00 | 32 | 1014.0 |
| 20260503213720 | 60 | 305 | 0.0 | 2.6 | 0.00 | 0.00 | 0.00 | 32 | 1014.0 |
| 20260503213220 | 60 | 279 | 0.0 | 2.6 | 0.00 | 0.00 | 0.00 | 33 | 1014.0 |
| 20260503212718 | 60 | 275 | 0.9 | 2.6 | 0.00 | 0.00 | 0.00 | 34 | 1014.0 |
| 20260503212218 | 60 | 306 | 0.9 | 4.3 | 0.00 | 0.00 | 0.00 | 32 | 1013.9 |
| 20260503211717 | 60 | 332 | 0.0 | 4.3 | 0.00 | 0.00 | 0.00 | 34 | 1013.9 |
| 20260503211216 | 60 | 310 | 0.9 | 2.6 | 0.00 | 0.00 | 0.00 | 34 | 1013.9 |
| 20260503210718 | 60 | 308 | 0.0 | 5.2 | 0.00 | 0.00 | 0.00 | 35 | 1014.0 |
| 20260503210217 | 60 | 328 | 1.7 | 5.2 | 0.00 | 0.00 | 0.00 | 33 | 1014.0 |
| 20260503205717 | 59 | 330 | 1.7 | 5.2 | 0.00 | 0.00 | 0.00 | 33 | 1014.0 |
| 20260503205217 | 59 | 304 | 0.9 | 4.3 | 0.00 | 0.00 | 0.00 | 35 | 1014.0 |
| 20260503204718 | 59 | 10 | 0.0 | 2.6 | 0.00 | 0.00 | 0.00 | 33 | 1014.0 |
| 20260503204218 | 59 | 330 | 0.0 | 7.0 | 0.00 | 0.00 | 0.00 | 34 | 1014.0 |
| 20260503203718 | 59 | 267 | 0.0 | 7.0 | 0.00 | 0.00 | 0.00 | 34 | 1014.1 |
| 20260503203218 | 59 | 302 | 2.6 | 7.0 | 0.00 | 0.00 | 0.00 | 34 | 1014.1 |
| 20260503202717 | 59 | 291 | 0.0 | 4.3 | 0.00 | 0.00 | 0.00 | 35 | 1014.3 |
| 20260503202503 | 59 | 280 | 0.9 | 4.3 | 0.00 | 0.00 | 0.00 | 33 | 1014.3 |
| 20260503202006 | 60 | 307 | 0.9 | 6.1 | 0.00 | 0.00 | 0.00 | 33 | 1014.3 |
| 20260503201505 | 60 | 317 | 2.6 | 6.1 | 0.00 | 0.00 | 0.00 | 33 | 1014.4 |
| 20260503201006 | 60 | 323 | 2.6 | 4.3 | 0.00 | 0.00 | 0.00 | 33 | 1014.4 |
| 20260503200220 | 59 | 332 | 1.7 | 6.1 | 0.00 | 0.00 | 0.00 | 34 | 1014.4 |
| 20260503195720 | 59 | 223 | 1.7 | 6.1 | 0.00 | 0.00 | 0.00 | 35 | 1014.5 |
| 20260503195219 | 59 | 308 | 0.9 | 6.1 | 0.00 | 0.00 | 0.00 | 35 | 1014.6 |
| 20260503194721 | 60 | 294 | 0.0 | 4.3 | 0.00 | 0.00 | 0.00 | 35 | 1014.6 |
| 20260503194220 | 60 | 285 | 0.0 | 4.3 | 0.00 | 0.00 | 0.00 | 34 | 1014.9 |
| 20260503193720 | 60 | 324 | 0.9 | 2.6 | 0.00 | 0.00 | 0.00 | 35 | 1014.9 |
| 20260503193220 | 59 | 333 | 0.0 | 7.0 | 0.00 | 0.00 | 0.00 | 35 | 1014.9 |
| 20260503192721 | 59 | 313 | 2.6 | 7.0 | 0.00 | 0.00 | 0.00 | 37 | 1015.0 |
| 20260503192220 | 59 | 282 | 0.0 | 6.1 | 0.00 | 0.00 | 0.00 | 36 | 1015.1 |
| 20260503191720 | 60 | 309 | 1.7 | 6.1 | 0.00 | 0.00 | 0.00 | 38 | 1015.2 |
| 20260503191220 | 60 | 304 | 2.6 | 8.7 | 0.00 | 0.00 | 0.00 | 36 | 1015.2 |
| 20260503190720 | 60 | 331 | 1.7 | 8.7 | 0.00 | 0.00 | 0.00 | 38 | 1015.2 |
| 20260503190220 | 60 | 298 | 0.9 | 7.0 | 0.00 | 0.00 | 0.00 | 38 | 1015.2 |
| 20260503185720 | 59 | 312 | 2.6 | 7.0 | 0.00 | 0.00 | 0.00 | 37 | 1015.4 |
| 20260503185222 | 59 | 285 | 1.7 | 7.8 | 0.00 | 0.00 | 0.00 | 38 | 1015.3 |
| 20260503184720 | 60 | 323 | 1.7 | 8.7 | 0.00 | 0.00 | 0.00 | 36 | 1015.5 |
| 20260503184219 | 59 | 291 | 2.6 | 8.7 | 0.00 | 0.00 | 0.00 | 37 | 1015.5 |
| 20260503183720 | 59 | 313 | 1.7 | 6.1 | 0.00 | 0.00 | 0.00 | 38 | 1015.5 |
| 20260503183221 | 58 | 276 | 1.7 | 6.1 | 0.00 | 0.00 | 0.00 | 37 | 1015.6 |
| 20260503182720 | 58 | 277 | 0.0 | 4.3 | 0.00 | 0.00 | 0.00 | 40 | 1015.6 |
| 20260503182221 | 58 | 298 | 0.0 | 5.2 | 0.00 | 0.00 | 0.00 | 43 | 1015.7 |
| 20260503181720 | 58 | 293 | 0.9 | 5.2 | 0.00 | 0.00 | 0.00 | 37 | 1015.7 |
| 20260503181221 | 57 | 295 | 0.9 | 6.1 | 0.00 | 0.00 | 0.00 | 40 | 1015.8 |
| 20260503180720 | 58 | 322 | 1.7 | 6.1 | 0.00 | 0.00 | 0.00 | 38 | 1015.7 |
| 20260503180220 | 58 | 333 | 1.7 | 6.1 | 0.00 | 0.00 | 0.00 | 38 | 1015.8 |
| 20260503175720 | 59 | 308 | 0.9 | 4.3 | 0.00 | 0.00 | 0.00 | 38 | 1015.9 |
| 20260503175220 | 58 | 315 | 0.9 | 6.1 | 0.00 | 0.00 | 0.00 | 43 | 1015.9 |
| 20260503174720 | 58 | 305 | 0.9 | 6.1 | 0.00 | 0.00 | 0.00 | 40 | 1015.9 |
| 20260503174220 | 57 | 325 | 0.0 | 8.7 | 0.00 | 0.00 | 0.00 | 41 | 1016.1 |
| 20260503173720 | 57 | 318 | 0.0 | 8.7 | 0.00 | 0.00 | 0.00 | 39 | 1015.9 |
| 20260503173220 | 57 | 321 | 1.7 | 6.1 | 0.00 | 0.00 | 0.00 | 43 | 1016.0 |
| 20260503172723 | 57 | 270 | 0.9 | 4.3 | 0.00 | 0.00 | 0.00 | 41 | 1015.9 |
| 20260503172220 | 57 | 346 | 1.7 | 4.3 | 0.00 | 0.00 | 0.00 | 40 | 1016.0 |
| 20260503171720 | 56 | 323 | 0.9 | 10.4 | 0.00 | 0.00 | 0.00 | 42 | 1016.1 |
| 20260503171219 | 55 | 318 | 4.3 | 10.4 | 0.00 | 0.00 | 0.00 | 51 | 1016.4 |
| 20260503170720 | 55 | 323 | 1.7 | 4.3 | 0.00 | 0.00 | 0.00 | 42 | 1016.4 |
| 20260503170220 | 55 | 328 | 0.9 | 6.1 | 0.00 | 0.00 | 0.00 | 41 | 1016.4 |
| 20260503150717 | 53 | 336 | 1.7 | 8.7 | 0.00 | 0.00 | 0.00 | 48 | 1016.9 |
| 20260503150216 | 52 | 320 | 2.6 | 8.7 | 0.00 | 0.00 | 0.00 | 44 | 1016.8 |
| 20260503140220 | 50 | 326 | 1.7 | 7.0 | 0.00 | 0.00 | 0.00 | 46 | 1016.9 |
| 20260503131217 | 46 | 304 | 1.7 | 4.3 | 0.00 | 0.00 | 0.00 | 58 | 1016.9 |
| 20260503130717 | 45 | 288 | 0.9 | 4.3 | 0.00 | 0.00 | 0.00 | 58 | 1016.9 |
| 20260503130218 | 45 | 304 | 1.7 | 4.3 | 0.00 | 0.00 | 0.00 | 61 | 1017.0 |
| 20260503120220 | 41 | 309 | 0.9 | 4.3 | 0.00 | 0.00 | 0.00 | 69 | 1016.7 |
| 20260503110716 | 38 | 323 | 0.0 | 0.0 | 0.00 | 0.00 | 0.00 | 77 | 1016.0 |
| 20260503110214 | 39 | 323 | 0.0 | 0.0 | 0.00 | 0.00 | 0.00 | 77 | 1016.0 |
| 20260503100218 | 39 | 323 | 0.0 | 1.7 | 0.00 | 0.00 | 0.00 | 73 | 1015.0 |